Timeline UpdatesTrip UpdatesNews PostsPvt PostsTravel TipsAdmin PostsConv PostsFollowed PostsChat RequestsBlog PostsPNR Posts

Disclaimer
Search
 
 
Mon Apr 21, 2014 07:34:00 ISTHomeTrainsΣChainsAtlasPNRForumGalleryNewsFAQTripsMembersLoginFeedback
No Recent News for this Train
Other Trains in the News **new
Latest...
⇐ Return Journey: Train# 54256

54255/Varanasi Lucknow Passenger (UnReserved)

Sep 11 2013 (1:00PM)
Change Departure Station:
Change Arrival Station:
Post a Train Travel TipPost a Train Travel Tip **new
Post a Comment/Question/Picture/VideoPost a Comment/Question/Picture/Video
Pantry/Catering
???
RSA - Rake Sharing
Rake/Coach Composition
Loco
News    PNR    Forum    Time-Table    Availability    Fare Chart    Map    Arr/Dep History    Trips    Gallery    ΣChains    X/O    Timeline    
Travel Time: 1h 0m    5 halts    Distance: 44 km    Avg Speed: 44 km/hr
Type: Passenger
Zone: NR/Northern
Departs @ 05:40 (Avg 32m late)
Platform# 8
SMTWTFS
Varanasi Junction/BSB 
Arrives @ 06:40 (Avg 1h 3m late)
Platform# ???
SMTWTFS
Bhadohi/BOY 

5 halts. 5 intermediate Stations between Varanasi Junction and Bhadohi

Show ALL intermediate Stations  Show Old Time-Table

#CodeStation NameX/OArrivesAvgDepartsAvgHaltPFDay#KmSpeedElevZoneAddress
1BSB»Varanasi Junction (9)»  -05:40+32810.02782mNRVaranasi, Uttar Pradesh
2LOTLohta (3)  05:53+3705:54+431m--15.96080mNRLohta, Uttar Pradesh
3CHHChaukhandi  06:04+4506:05+471m--115.95084mNR221405, Uttar Pradesh
4SWPRSewapuri (2)X  06:13+4906:14+511m1122.54687mNRState Highway 87, Uttar Pradesh
5KEHKapseti (2)X  06:21+5306:22+571m--127.96385mNRState Highway 87, Uttar Pradesh
6PRFParsipur (2)  06:30+5706:31+1:011m--136.25587mNRSant Ravidas Nagar, Uttar Pradesh
7BOY•Bhadohi (2)•X  06:40+1:0306:41+1:101m--144.55490mNRUttar Pradesh 221401, Uttar Pradesh
8MOFMondh (2)  06:50+1:1106:51+1:171m--152.65491mNRUttar Pradesh 221406, Uttar Pradesh
9SAWSuriawan (2)X  06:59+1:1907:00+1:231m--159.96790mNR221404, Uttar Pradesh
10SQNSarai Kansrai (2)X  07:09+1:2407:10+1:271m--169.93892mNRGopalaha Marg, Uttar Pradesh
11JNHJanghai Junction (3)  07:18+1:2807:20+1:302m--174.94492mNRUttar Pradesh 212401, Uttar Pradesh
12NBPNibhapur (1)  07:31+1:3007:32+1:301m1182.96691mNRThakur Rd, Uttar Pradesh
13BSEBadshahpur (2)  07:40+1:3207:41+1:341m--191.75093mNRMungra Badshahpur, Uttar Pradesh
14SWSSuwansa (2)  07:49+1:3407:50+1:361m--198.342100mNRState Highway 36, Uttar Pradesh
15GRXGaura (2)  07:58+1:3707:59+1:411m--1103.96097mNRState Highway 36, Uttar Pradesh
16DNDDandupur (1)  08:09+1:4108:10+1:421m11113.95199mNRDelhupur, Uttar Pradesh
17PHVPirthiGanj (2)X  08:18+1:4308:19+1:471m--1120.71199mNRState Highway 36, Uttar Pradesh
18PBHPratapgarh Junction (3)X  09:00+1:2009:10+1:3710m21128.11797mNRPratapgarh, Uttar Pradesh
19CILChilbila Junction (5)  09:24+1:3609:25+1:391m--1132.08399mNRState Highway 9, Uttar Pradesh
20JGJJageshwarganj (1)  09:34+1:4109:35+1:481m11144.453101mNRPartapgarh, Uttar Pradesh
21ANTUAntu (2)X  09:44+1:4909:45+1:551m--1152.316101mNRDist. Pratapgarh, Uttar Pradesh
22SHJPSahajipur Halt (1)  09:51+1:5409:52+1:541m11153.951102mNRSahajipur, Uttar Pradesh
23MFLMisrauli (1)  09:58+1:5409:59+1:561m11159.031100mNRGauriGanj, Uttar Pradesh
24AMEAmethi (2)  10:07+1:5710:08+2:021m--1163.145107mNRAmethi., Uttar Pradesh
25TLKHTalakhajuri (1)X  10:18+2:0110:19+2:051m11170.643112mNRAntu, Uttar Pradesh
26GNGGauriGanj (2)O  10:27+2:0610:28+2:141m--1176.456110mNRSH 34, Uttar Pradesh
27BANIBani (1)  10:37+2:1610:38+2:211m11184.754109mNRJais, Uttar Pradesh
28KCJKasimpur (1)  10:46+2:2210:47+2:221m11192.030111mNRGauriGanj, Uttar Pradesh
29JAISJais (2)  10:52+2:2110:53+2:261m--1194.470108mNRRae Bareli, Uttar Pradesh
30FTGFursatGanj (2)  11:02+2:2811:03+2:311m--1205.069119mNRJais, Uttar Pradesh
31RUMRupamau (2)  11:11+2:3311:12+2:451m--1214.210118mNRGangaGanj, Uttar Pradesh
32RBLRae Bareli Junction (4)X  12:05+2:0712:15+2:1210m--1223.246116mNRRaebareli, Uttar Pradesh
33GANGGangaGanj (2)  12:25+2:1412:26+2:181m--1230.960118mNRBachhrawan, Uttar Pradesh
34HCPHarchandpur (3)X  12:33+2:1912:34+2:241m--1237.954118mNRRae Bareli, Uttar Pradesh
35KVGKundanganj (2)  12:41+2:2612:42+2:351m--1244.344119mNRHarchandpur, Uttar Pradesh
36BCNBachhrawan (2)  12:55+2:3312:57+2:362m--1253.843124mNRLucknow, Uttar Pradesh
37SAGRShrirajnagar (1)  13:05+2:3613:06+2:431m11259.545122mNRMohanlalGanj, Uttar Pradesh
38NHNNigohan (1)X  13:14+2:4313:15+2:511m11265.546120mNRLucknow, Uttar Pradesh
39KKAHKankaha (1)X  13:24+2:5213:25+2:581m11272.460125mNRBachhrawan, Uttar Pradesh
40MLJMohanlalGanj (1)  13:33+2:5913:34+3:091m11280.417124mNRMohanlalganj, Uttar Pradesh
41UTRUtraitia Junction (2)X  14:04+2:5114:05+3:161m--1288.921124mNRLucknow, Uttar Pradesh
42BHAWBlock Hut A  14:18+3:1514:19+3:151m--1293.415121mNRLucknow, Uttar Pradesh
43LKOLucknow Charbagh (9)  14:50+3:12---1301.1-123mNRCharbagh, Uttar Pradesh
Scroll to Top
Scroll to Bottom